Flag for Uruguay Weather past 2 weeks in Maldonado, Uruguay

Now
46 °F

Clear.


Feels Like: 45 °F
Forecast: 55 / 65 °F
Wind: 3 mph from West

Location: Capitan Corbeta


UV Index: 3 (Moderate)

Visibility: 10 mi


Pressure: 30.15 "Hg

Humidity: 93%

Dew point: 45 °F

Location of MaldonadoLocation

Historic Weather in Maldonado

°F

Maldonado temperature yesterday

Maximum temperature yesterday: 64 °F (at 12:00 PM)
Minimum temperature yesterday: 43 °F (at 4:00 AM)
Average temperature yesterday: 53 °F

Past Weeks' High & Low Weather Summary

 TemperatureHumidityPressure
High75 °F (Apr 17, 2:00 PM)100% (Apr 15, 10:00 PM)30.21 "Hg (Apr 15, 10:00 PM)
Low43 °F (Apr 23, 4:00 AM)41% (Apr 10, 1:00 PM)29.56 "Hg (Apr 12, 6:00 AM)
Average59 °F74%29.99 "Hg
* Reported Apr 9 4:00 AM — Apr 24 4:00 AM, Maldonado, Weather by CustomWeather, © 2014

Note: Actual official high and low records may vary slightly from our data, if they occured in-between our weather recording intervals... More about our weather records

Advertising

Historic Weather Conditions — Data for Previous 24 hours

 ConditionsComfort  
Time TempWeatherWind HumidityBarometerVisibility
4:00 AM
Apr 24
46 °FClear.No wind100%30.15 "Hg10 mi
3:00 AM48 °FClear.No wind94%30.15 "Hg10 mi
2:00 AM48 °FClear.5 mph94%30.18 "Hg10 mi
1:00 AM48 °FClear.3 mph100%30.18 "Hg10 mi
12:00 AM50 °FClear.No wind94%30.18 "Hg10 mi
11:00 PM
Apr 23
50 °FClear.No wind94%30.18 "Hg10 mi
10:00 PM52 °FClear.No wind94%30.15 "Hg10 mi
9:00 PM54 °FClear.5 mph94%30.15 "Hg5 mi
8:00 PM55 °FClear.No wind88%30.12 "Hg10 mi
7:00 PM59 °FClear.No wind77%30.12 "Hg10 mi
4:00 PM63 °FSunny.8 mph64%30.12 "Hg10 mi
3:00 PM64 °FSunny.9 mph56%30.15 "Hg10 mi
2:00 PM63 °FSunny.8 mph59%30.15 "Hg10 mi
1:00 PM64 °FSunny.8 mph56%30.15 "Hg10 mi
12:00 PM64 °FSunny.No wind52%30.15 "Hg10 mi
11:00 AM61 °FSunny.No wind52%30.18 "Hg10 mi
10:00 AM57 °FSunny.No wind72%30.18 "Hg10 mi
9:00 AM52 °FSunny.No wind94%30.18 "Hg10 mi
8:00 AM46 °FSunny.No wind93%30.15 "Hg10 mi
6:00 AM45 °FClear.No wind93%30.15 "Hg10 mi
5:00 AM43 °FClear.3 mph100%30.12 "Hg10 mi
Weather by CustomWeather, © 2014

See weather overview